Lawrence, KS

11:36 AM CDT on August 24, 2016 (GMT -0500)
Lawrence Municipal

Weather History for KLWC - December, 2013

Change the Weather History Date:

Tuesday, December 31, 2013

  Actual Average Record
Temperature  
Mean Temperature 34 °F 29 °F  
Max Temperature 55 °F 39 °F 66 °F (2011)
Min Temperature 13 °F 19 °F 3 °F (2014)
Degree Days  
Heating Degree Days 31 36  
Month to date heating degree days 1121 1036  
Since 1 July heating degree days 2151 2043  
Cooling Degree Days 0 0  
Month to date cooling degree days 0 0  
Year to date cooling degree days 1492 1371  
Moisture  
Dew Point 19 °F    
Average Humidity 55    
Maximum Humidity 80    
Minimum Humidity 30    
Precipitation  
Precipitation 0.00 in 0.05 in 0.12 in (2010)
Month to date precipitation 0.46 1.47  
Year to date precipitation 28.41 38.55  
Sea Level Pressure  
Sea Level Pressure 30.20 in    
Wind  
Wind Speed 8 mph (SSE)    
Max Wind Speed 29 mph    
Max Gust Speed 37 mph    
Visibility 10 miles    
Events      
T = Trace of Precipitation, MM = Missing Value Source: NWS Daily Summary

Daily Weather History Graph

Daily Weather History Graph

Search for Another Location

Airport or City:

Trip Planner

Search our weather history database for the weather conditions in past years. The results will help you decide how hot, cold, wet, or windy it might be!

Date:

Astronomy

Dec. 31, 2013 Rise Set
Actual Time 7:39 AM CST 5:08 PM CST
Civil Twilight 7:09 AM CST 5:38 PM CST
Nautical Twilight 6:36 AM CST 6:11 PM CST
Astronomical Twilight 6:03 AM CST 6:44 PM CST
Moon 6:33 AM CST (12/31) 4:45 PM CST (12/31)
Length of Visible Light 10h 28m
Length of Day
9h 28m
Waning Crescent, 1% of the Moon is Illuminated
Dec 31
Waning Crescent
Jan 1
New
Jan 7
First Quarter
Jan 15
Full
Jan 23
Last Quarter

Hourly Weather History & Observations

Time (CST) Temp. Windchill Dew Point Humidity Pressure Visibility Wind Dir Wind Speed Gust Speed Precip Events Conditions
12:52 AM 16.0 °F 8.8 °F 10.0 °F 77% 30.35 in 10.0 mi NW 4.6 mph - N/A   Clear
1:52 AM 16.0 °F - 10.9 °F 81% 30.38 in 10.0 mi Calm Calm - N/A   Clear
2:52 AM 15.1 °F 9.4 °F 10.0 °F 80% 30.36 in 10.0 mi SSE 3.5 mph - N/A   Clear
3:52 AM 15.1 °F - 10.0 °F 80% 30.33 in 10.0 mi Calm Calm - N/A   Clear
4:52 AM 15.1 °F 9.4 °F 9.0 °F 77% 30.32 in 10.0 mi SSE 3.5 mph - N/A   Clear
5:52 AM 14.0 °F 8.2 °F 9.0 °F 80% 30.30 in 10.0 mi ESE 3.5 mph - N/A   Clear
6:52 AM 16.0 °F 10.4 °F 10.0 °F 77% 30.30 in 10.0 mi East 3.5 mph - N/A   Clear
7:52 AM 17.1 °F 10.0 °F 10.9 °F 77% 30.31 in 10.0 mi East 4.6 mph - N/A   Clear
8:52 AM 24.1 °F 16.0 °F 18.0 °F 77% 30.29 in 10.0 mi East 6.9 mph - N/A   Clear
9:52 AM 28.0 °F 20.0 °F 19.9 °F 72% 30.28 in 10.0 mi SE 8.1 mph - N/A   Clear
10:52 AM 39.0 °F 35.7 °F 24.1 °F 55% 30.25 in 10.0 mi SSE 4.6 mph - N/A   Clear
11:52 AM 50.0 °F - 25.0 °F 38% 30.19 in 10.0 mi SSW 19.6 mph 27.6 mph N/A   Clear
12:52 PM 53.1 °F - 25.0 °F 34% 30.13 in 10.0 mi SSW 20.7 mph 31.1 mph N/A   Clear
1:52 PM 53.1 °F - 25.0 °F 34% 30.09 in 10.0 mi South 16.1 mph 24.2 mph N/A   Clear
2:52 PM 54.0 °F - 24.1 °F 31% 30.06 in 10.0 mi South 19.6 mph 32.2 mph N/A   Clear
3:52 PM 52.0 °F - 21.0 °F 30% 30.06 in 10.0 mi SSW 16.1 mph 24.2 mph N/A   Clear
4:52 PM 48.0 °F - 25.0 °F 41% 30.10 in 10.0 mi South 8.1 mph - N/A   Clear
5:52 PM 39.9 °F 35.8 °F 24.1 °F 53% 30.10 in 10.0 mi SSE 5.8 mph - N/A   Clear
6:52 PM 42.1 °F 36.6 °F 26.1 °F 53% 30.10 in 10.0 mi South 9.2 mph - N/A   Clear
7:52 PM 36.0 °F 31.1 °F 24.1 °F 62% 30.12 in 10.0 mi SE 5.8 mph - N/A   Clear
8:52 PM 35.1 °F 28.6 °F 24.1 °F 64% 30.11 in 10.0 mi ESE 8.1 mph - N/A   Clear
9:52 PM 36.0 °F 31.1 °F 24.1 °F 62% 30.09 in 10.0 mi ESE 5.8 mph - N/A   Clear
10:52 PM 36.0 °F 32.1 °F 23.0 °F 59% 30.08 in 10.0 mi East 4.6 mph - N/A   Clear
11:52 PM 37.0 °F 32.4 °F 23.0 °F 57% 30.06 in 10.0 mi East 5.8 mph - N/A   Clear